Change the Weather History Date:

Monday, March 11, 2013

  Actual Average Record
Temperature  
Mean Temperature 46 °F 37 °F  
Max Temperature 55 °F 47 °F 64 °F (1983)
Min Temperature 37 °F 26 °F 1 °F (1969)
Degree Days  
Heating Degree Days 19 28  
Month to date heating degree days 304 332  
Since 1 July heating degree days 5415 5605  
Cooling Degree Days 0 0  
Month to date cooling degree days 0 0  
Year to date cooling degree days 0 0  
Moisture  
Dew Point 27 °F    
Average Humidity 49    
Maximum Humidity 62    
Minimum Humidity 36    
Precipitation  
Precipitation T in 0.04 in 0.67 in (1995)
Month to date precipitation 0.33 0.45  
Year to date precipitation 1.41 2.41  
Snow  
Snow 0.00 in - - ()
Month to date snowfall 0.6  
Since 1 July snowfall 34.2  
Snow Depth 0.00 in    
Sea Level Pressure  
Sea Level Pressure 30.17 in    
Wind  
Wind Speed 16 mph (SW)    
Max Wind Speed 29 mph    
Max Gust Speed 33 mph    
Visibility 10 miles    
Events Rain    
T = Trace of Precipitation, MM = Missing Value Source: NWS Daily Summary

Daily Weather History Graph

Daily Weather History Graph

Search for Another Location

Airport or City:

Trip Planner

Search our weather history database for the weather conditions in past years. The results will help you decide how hot, cold, wet, or windy it might be!

Date:

Astronomy

Mar. 11, 2013 Rise Set
Actual Time 7:48 AM MDT 7:32 PM MDT
Civil Twilight 7:20 AM MDT 8:00 PM MDT
Nautical Twilight 6:47 AM MDT 8:33 PM MDT
Astronomical Twilight 6:14 AM MDT 9:06 PM MDT
Moon 7:23 AM MDT (3/11) 7:50 PM MDT (3/11)
Length of Visible Light 12h 40m
Length of Day
11h 43m
Waning Crescent, 0% of the Moon is Illuminated
Mar 11
Waning Crescent
Mar 11
New
Mar 19
First Quarter
Mar 27
Full
Apr 2
Last Quarter

Hourly Weather History & Observations

Time (MDT) Temp. Windchill Dew Point Humidity Pressure Visibility Wind Dir Wind Speed Gust Speed Precip Events Conditions
12:53 AM 43.0 °F 34.5 °F 18.0 °F 37% 30.21 in 10.0 mi SW 19.6 mph - N/A   Overcast
1:53 AM 42.1 °F 33.6 °F 18.0 °F 38% 30.20 in 10.0 mi SSW 18.4 mph - N/A   Scattered Clouds
2:53 AM 39.9 °F 32.1 °F 19.0 °F 43% 30.21 in 10.0 mi SSW 13.8 mph - N/A   Scattered Clouds
3:53 AM 39.9 °F 32.1 °F 19.9 °F 45% 30.19 in 10.0 mi SW 13.8 mph - N/A   Overcast
4:53 AM 39.0 °F 30.3 °F 19.9 °F 46% 30.16 in 10.0 mi SSW 16.1 mph - N/A   Mostly Cloudy
5:53 AM 37.9 °F 29.6 °F 19.9 °F 48% 30.19 in 10.0 mi SSW 13.8 mph - N/A   Mostly Cloudy
6:53 AM 39.0 °F 32.3 °F 21.0 °F 49% 30.19 in 10.0 mi SW 10.4 mph - N/A   Mostly Cloudy
7:53 AM 39.0 °F 30.6 °F 19.9 °F 46% 30.20 in 10.0 mi SSW 15.0 mph - N/A   Overcast
8:53 AM 39.0 °F 31.0 °F 21.9 °F 50% 30.20 in 10.0 mi SW 13.8 mph - N/A   Mostly Cloudy
9:53 AM 41.0 °F 36.4 °F 23.0 °F 49% 30.20 in 10.0 mi SW 6.9 mph - N/A   Overcast
10:53 AM 44.1 °F 35.0 °F 28.0 °F 53% 30.19 in 10.0 mi WSW 24.2 mph 28.8 mph N/A   Overcast
11:53 AM 46.0 °F 38.3 °F 30.9 °F 56% 30.19 in 10.0 mi WSW 20.7 mph - N/A   Mostly Cloudy
12:53 PM 48.9 °F - 32.0 °F 52% 30.16 in 10.0 mi WSW 21.9 mph 31.1 mph N/A   Mostly Cloudy
1:53 PM 53.1 °F - 34.0 °F 48% 30.14 in 10.0 mi WSW 19.6 mph 29.9 mph N/A   Mostly Cloudy
2:53 PM 53.1 °F - 32.0 °F 45% 30.12 in 10.0 mi WSW 18.4 mph - N/A   Mostly Cloudy
3:53 PM 48.9 °F - 33.1 °F 54% 30.11 in 10.0 mi WSW 19.6 mph - 0.00 in Rain Light Rain
4:53 PM 50.0 °F - 33.1 °F 52% 30.10 in 10.0 mi WSW 19.6 mph - 0.00 in   Mostly Cloudy
5:53 PM 50.0 °F - 32.0 °F 50% 30.11 in 10.0 mi WSW 16.1 mph - N/A   Mostly Cloudy
6:53 PM 48.0 °F - 33.1 °F 56% 30.12 in 10.0 mi WSW 20.7 mph - N/A   Mostly Cloudy
7:53 PM 45.0 °F 37.9 °F 32.0 °F 60% 30.13 in 10.0 mi WSW 16.1 mph - N/A   Mostly Cloudy
8:53 PM 44.1 °F 36.5 °F 30.9 °F 60% 30.14 in 10.0 mi SW 17.3 mph - N/A   Overcast
9:53 PM 43.0 °F 35.7 °F 30.9 °F 62% 30.16 in 10.0 mi SW 15.0 mph - N/A   Overcast
10:53 PM 42.1 °F 34.2 °F 30.9 °F 65% 30.17 in 10.0 mi SW 16.1 mph - N/A   Partly Cloudy
11:53 PM 41.0 °F 33.1 °F 28.9 °F 62% 30.18 in 10.0 mi SW 15.0 mph - N/A   Clear